星链-2244 (STARLINK-2244 )

导读 | 星芒AI

STARLINK-2244 是 SpaceX Starlink 卫星互联网项目中的第2244颗卫星,属于低轨卫星群的一部分。该卫星于2023年发射,旨在为全球用户提供高速互联网服务,特别是在网络基础设施薄弱的地区。它运行在约550公里的近地轨道上,采用先进通信技术,支持宽带数据传输,并具备自动避撞功能以确保太空安全。作为Starlink计划的组成部分,该卫星有助于构建全球覆盖的卫星网络,推动远程教育、医疗和通信的发展。

基本信息
目录编号:
48588
目录名称:
STARLINK-2244
国际标识:
2021-041AM
轨道中心:
EARTH
卫星名称:
星链-2244
卫星全名:
星链-2244 (STARLINK-2244 )
卫星状态:
已陨落 最后检测时间 2025-01-05
发射日期:
2021-05-15 UTC
国别 :
美国 (US)
星等 :
--
轨道信息
数据来源 国际轨道数据
星历时间: 2025-01-05T20:50:00+0800
轨道信息已过期345天
半长轴: 6508.701km
偏心率: 0.0002384
轨道倾角: 53.017°
近地点辐角 119.524°
升交点赤经 236.479°
平近点角 342.686°
近地点: 129.014km
远地点: 132.118km
周期: 87.097分钟
每日圈数: 16.533369
详细信息
固有亮度:
5
最大亮度:
2.5
卫星平台:
Starlink V1.0
覆盖范围:
全球
运营商:
太空探索技术公司
运营商所在国:
美国
制造商(研发单位):
太空探索技术公司
制造商所在国:
美国
使用方式:
暂无
卫星简介
星链(Starlink)计划是由太空探索技术公司(SpaceX)提出的一个巨型低轨卫星互联网星座项目,计划在2019年至2024年间在太空搭建由约1.2万颗卫星组成的“星链”网络,其中1584颗将部署在地球上空550千米处的近地轨道,并从2020年开始工作。该卫星仍在工作。